| time (UTC) | temp F | wind direction | speed knots | gust knots | rain 1hr in | rain 24hr in | rain mn in | humidity % | barometer mb |
| 20260905172814 | 89 | 175 | 1.7 | 4.3 | 0.00 | 0.00 | 0.00 | 65 | 1014.5 |
| 20260905172312 | 89 | 249 | 4.3 | 6.1 | 0.00 | 0.00 | 0.00 | 63 | 1014.6 |
| 20260905171809 | 90 | 225 | 2.6 | 6.1 | 0.00 | 0.00 | 0.00 | 64 | 1014.7 |
| 20260905171305 | 88 | 147 | 0.9 | 4.3 | 0.00 | 0.00 | 0.00 | 65 | 1014.9 |
| 20260905170801 | 88 | 174 | 1.7 | 3.5 | 0.00 | 0.00 | 0.00 | 66 | 1015.0 |
| 20260905170257 | 88 | 260 | 4.3 | 6.1 | 0.00 | 0.00 | 0.00 | 64 | 1015.1 |
| 20260905165756 | 88 | 228 | 6.1 | 9.6 | 0.00 | 0.00 | 0.00 | 64 | 1015.2 |
| 20260905165252 | 87 | 242 | 6.1 | 6.1 | 0.00 | 0.00 | 0.00 | 65 | 1015.3 |
| 20260905164752 | 87 | 212 | 3.5 | 6.1 | 0.00 | 0.00 | 0.00 | 65 | 1015.3 |
| 20260905164246 | 87 | 246 | 3.5 | 6.1 | 0.00 | 0.00 | 0.00 | 65 | 1015.8 |
| 20260905163742 | 87 | 18 | 0.9 | 5.2 | 0.00 | 0.00 | 0.00 | 65 | 1015.5 |
| 20260905163238 | 87 | 279 | 0.0 | 3.5 | 0.00 | 0.00 | 0.00 | 65 | 1015.5 |
| 20260905162734 | 88 | 210 | 2.6 | 4.3 | 0.00 | 0.00 | 0.00 | 65 | 1015.7 |
| 20260905162233 | 87 | 164 | 2.6 | 4.3 | 0.00 | 0.00 | 0.00 | 67 | 1015.4 |
| 20260905161723 | 87 | 142 | 4.3 | 6.1 | 0.00 | 0.00 | 0.00 | 66 | 1015.4 |
| 20260905161221 | 87 | 143 | 2.6 | 6.1 | 0.00 | 0.00 | 0.00 | 65 | 1015.2 |
| 20260905160720 | 86 | 193 | 0.0 | 5.2 | 0.00 | 0.00 | 0.00 | 66 | 1015.2 |
| 20260905160220 | 87 | 171 | 0.0 | 6.1 | 0.00 | 0.00 | 0.00 | 64 | 1015.3 |
| 20260905155714 | 87 | 193 | 1.7 | 3.5 | 0.00 | 0.00 | 0.00 | 66 | 1015.5 |
| 20260905155213 | 87 | 135 | 2.6 | 4.3 | 0.00 | 0.00 | 0.00 | 64 | 1015.6 |
| 20260905154707 | 87 | 105 | 0.0 | 4.3 | 0.00 | 0.00 | 0.00 | 66 | 1016.0 |
| 20260905154203 | 86 | 138 | 0.9 | 2.6 | 0.00 | 0.00 | 0.00 | 67 | 1015.9 |
| 20260905153659 | 84 | 215 | 3.5 | 5.2 | 0.00 | 0.00 | 0.00 | 68 | 1016.0 |
| 20260905153154 | 84 | 136 | 4.3 | 6.1 | 0.00 | 0.00 | 0.00 | 67 | 1015.9 |
| 20260905152649 | 85 | 223 | 2.6 | 4.3 | 0.00 | 0.00 | 0.00 | 66 | 1015.9 |
| 20260905152144 | 84 | 136 | 3.5 | 7.8 | 0.00 | 0.00 | 0.00 | 68 | 1015.7 |
| 20260905151638 | 84 | 138 | 3.5 | 3.5 | 0.00 | 0.00 | 0.00 | 65 | 1015.7 |
| 20260905151134 | 84 | 156 | 2.6 | 4.3 | 0.00 | 0.00 | 0.00 | 69 | 1015.8 |
| 20260905150629 | 83 | 159 | 3.5 | 5.2 | 0.00 | 0.00 | 0.00 | 69 | 1015.8 |
| 20260905150127 | 83 | 125 | 0.0 | 6.1 | 0.00 | 0.00 | 0.00 | 72 | 1015.7 |
| 20260905145626 | 83 | 132 | 3.5 | 5.2 | 0.00 | 0.00 | 0.00 | 72 | 1015.8 |
| 20260905145125 | 83 | 155 | 1.7 | 4.3 | 0.00 | 0.00 | 0.00 | 72 | 1015.7 |
| 20260905144620 | 82 | 151 | 3.5 | 7.8 | 0.00 | 0.00 | 0.00 | 73 | 1015.6 |
| 20260905144119 | 82 | 144 | 2.6 | 3.5 | 0.00 | 0.00 | 0.00 | 72 | 1015.9 |
| 20260905143614 | 81 | 63 | 2.6 | 7.0 | 0.00 | 0.00 | 0.00 | 73 | 1016.0 |
| 20260905143109 | 80 | 147 | 2.6 | 6.1 | 0.00 | 0.00 | 0.00 | 75 | 1016.2 |
| 20260905142608 | 80 | 173 | 3.5 | 8.7 | 0.00 | 0.00 | 0.00 | 74 | 1016.1 |
| 20260905142102 | 81 | 152 | 4.3 | 5.2 | 0.00 | 0.00 | 0.00 | 76 | 1016.2 |
| 20260905141601 | 80 | 131 | 0.9 | 4.3 | 0.00 | 0.00 | 0.00 | 77 | 1016.1 |
| 20260905141058 | 80 | 172 | 3.5 | 7.8 | 0.00 | 0.00 | 0.00 | 76 | 1016.2 |
| 20260905140553 | 79 | 148 | 4.3 | 7.8 | 0.00 | 0.00 | 0.00 | 76 | 1015.9 |
| 20260905140052 | 80 | 203 | 0.9 | 7.8 | 0.00 | 0.00 | 0.00 | 76 | 1016.1 |
| 20260905135548 | 80 | 135 | 2.6 | 5.2 | 0.00 | 0.00 | 0.00 | 79 | 1016.0 |
| 20260905135047 | 80 | 71 | 1.7 | 4.3 | 0.00 | 0.00 | 0.00 | 79 | 1016.2 |
| 20260905134542 | 80 | 172 | 1.7 | 4.3 | 0.00 | 0.00 | 0.00 | 79 | 1016.3 |
| 20260905134041 | 79 | 122 | 2.6 | 4.3 | 0.00 | 0.00 | 0.00 | 82 | 1016.0 |
| 20260905133536 | 79 | 163 | 3.5 | 8.7 | 0.00 | 0.00 | 0.00 | 82 | 1016.4 |
| 20260905133031 | 78 | 138 | 1.7 | 7.0 | 0.00 | 0.00 | 0.00 | 83 | 1016.3 |
| 20260905132531 | 78 | 112 | 4.3 | 10.4 | 0.00 | 0.00 | 0.00 | 83 | 1016.3 |
| 20260905132026 | 78 | 111 | 1.7 | 7.8 | 0.00 | 0.00 | 0.00 | 83 | 1016.3 |
| 20260905131521 | 78 | 176 | 3.5 | 6.1 | 0.00 | 0.00 | 0.00 | 84 | 1016.3 |
| 20260905131016 | 78 | 107 | 1.7 | 7.0 | 0.00 | 0.00 | 0.00 | 87 | 1016.2 |
| 20260905130515 | 78 | 124 | 1.7 | 6.1 | 0.00 | 0.00 | 0.00 | 88 | 1016.2 |
| 20260905130011 | 78 | 157 | 0.0 | 4.3 | 0.00 | 0.00 | 0.00 | 88 | 1016.3 |
| 20260905125505 | 78 | 145 | 2.6 | 5.2 | 0.00 | 0.00 | 0.00 | 88 | 1016.4 |
| 20260905125000 | 78 | 138 | 1.7 | 5.2 | 0.00 | 0.00 | 0.00 | 88 | 1016.3 |
| 20260905124457 | 78 | 143 | 3.5 | 7.8 | 0.00 | 0.00 | 0.00 | 88 | 1016.3 |
| 20260905123952 | 78 | 144 | 2.6 | 3.5 | 0.00 | 0.00 | 0.00 | 89 | 1015.9 |
| 20260905123448 | 77 | 147 | 2.6 | 4.3 | 0.00 | 0.00 | 0.00 | 92 | 1015.9 |
| 20260905122948 | 76 | 147 | 1.7 | 4.3 | 0.00 | 0.00 | 0.00 | 94 | 1015.7 |
| 20260905122443 | 75 | 127 | 3.5 | 6.1 | 0.00 | 0.00 | 0.00 | 95 | 1016.0 |
| 20260905121938 | 76 | 29 | 0.0 | 0.9 | 0.00 | 0.00 | 0.00 | 95 | 1015.2 |
| 20260905121434 | 76 | 167 | 1.7 | 1.7 | 0.00 | 0.00 | 0.00 | 94 | 1015.2 |
| 20260905120933 | 76 | 135 | 0.0 | 0.9 | 0.00 | 0.00 | 0.00 | 94 | 1015.1 |
| 20260905120427 | 75 | 230 | 0.9 | 1.7 | 0.00 | 0.00 | 0.00 | 94 | 1015.0 |
| 20260905115922 | 75 | 230 | 0.0 | 0.0 | 0.00 | 0.00 | 0.00 | 95 | 1015.1 |
| 20260905115421 | 75 | 22 | 0.0 | 0.9 | 0.00 | 0.00 | 0.00 | 95 | 1014.7 |
| 20260905114917 | 75 | 244 | 0.0 | 1.7 | 0.00 | 0.00 | 0.00 | 95 | 1014.8 |
| 20260905114416 | 75 | 89 | 0.0 | 0.0 | 0.00 | 0.00 | 0.00 | 96 | 1014.7 |
| 20260905113910 | 75 | 82 | 0.9 | 0.9 | 0.00 | 0.00 | 0.00 | 96 | 1014.8 |
| 20260905113405 | 75 | 50 | 0.0 | 0.0 | 0.00 | 0.00 | 0.00 | 96 | 1014.8 |
| 20260905112901 | 75 | 45 | 0.9 | 1.7 | 0.00 | 0.00 | 0.00 | 96 | 1014.6 |
| 20260905112356 | 75 | 114 | 0.9 | 0.9 | 0.00 | 0.00 | 0.00 | 96 | 1014.5 |
| 20260905111850 | 75 | 129 | 0.0 | 0.9 | 0.00 | 0.00 | 0.00 | 96 | 1014.5 |
| 20260905111344 | 75 | 240 | 0.0 | 0.0 | 0.00 | 0.00 | 0.00 | 96 | 1014.5 |
| 20260905110844 | 75 | 217 | 0.0 | 0.9 | 0.00 | 0.00 | 0.00 | 96 | 1014.5 |
| 20260905110338 | 75 | 291 | 0.0 | 1.7 | 0.00 | 0.00 | 0.00 | 96 | 1014.4 |
| 20260905105834 | 75 | 229 | 0.0 | 0.9 | 0.00 | 0.00 | 0.00 | 96 | 1014.2 |
| 20260905105333 | 75 | 44 | 0.0 | 0.0 | 0.00 | 0.00 | 0.00 | 96 | 1014.4 |
| 20260905104827 | 75 | 25 | 0.0 | 0.0 | 0.00 | 0.00 | 0.00 | 96 | 1014.6 |
| 20260905104324 | 75 | 25 | 0.0 | 0.9 | 0.00 | 0.00 | 0.00 | 96 | 1014.5 |
| 20260905103823 | 75 | 104 | 0.0 | 0.9 | 0.00 | 0.00 | 0.00 | 96 | 1014.5 |
| 20260905103319 | 76 | 129 | 0.0 | 0.9 | 0.00 | 0.00 | 0.00 | 96 | 1014.6 |
| 20260905102815 | 76 | 142 | 0.0 | 0.9 | 0.00 | 0.00 | 0.00 | 95 | 1014.6 |
| 20260905102311 | 76 | 321 | 0.0 | 0.9 | 0.00 | 0.00 | 0.00 | 95 | 1014.7 |
| 20260905101811 | 76 | 225 | 0.0 | 0.9 | 0.00 | 0.00 | 0.00 | 95 | 1014.7 |
| 20260905101309 | 76 | 243 | 0.9 | 1.7 | 0.00 | 0.00 | 0.00 | 95 | 1014.6 |
| 20260905100803 | 76 | 242 | 0.0 | 0.9 | 0.00 | 0.00 | 0.00 | 95 | 1014.7 |
| 20260905100259 | 76 | 239 | 0.9 | 1.7 | 0.00 | 0.00 | 0.00 | 95 | 1014.7 |
| 20260905095758 | 76 | 244 | 1.7 | 1.7 | 0.00 | 0.00 | 0.00 | 95 | 1014.7 |
| 20260905095253 | 76 | 230 | 0.0 | 1.7 | 0.00 | 0.00 | 0.00 | 95 | 1014.4 |
| 20260905094748 | 76 | 32 | 0.0 | 0.9 | 0.00 | 0.00 | 0.00 | 95 | 1014.5 |
| 20260905094244 | 76 | 195 | 0.0 | 0.0 | 0.00 | 0.00 | 0.00 | 95 | 1014.4 |
| 20260905093742 | 76 | 218 | 0.0 | 1.7 | 0.00 | 0.00 | 0.00 | 95 | 1014.3 |
| 20260905093238 | 76 | 212 | 0.0 | 0.9 | 0.00 | 0.00 | 0.00 | 95 | 1014.4 |
| 20260905092734 | 76 | 254 | 0.0 | 2.6 | 0.00 | 0.00 | 0.00 | 95 | 1014.6 |
| 20260905092229 | 76 | 255 | 0.0 | 0.9 | 0.00 | 0.00 | 0.00 | 95 | 1014.5 |
| 20260905091729 | 76 | 89 | 0.0 | 0.9 | 0.00 | 0.00 | 0.00 | 95 | 1014.3 |
| 20260905091224 | 76 | 37 | 0.0 | 1.7 | 0.00 | 0.00 | 0.00 | 95 | 1014.2 |
| 20260905090723 | 76 | 62 | 0.0 | 0.9 | 0.00 | 0.00 | 0.00 | 95 | 1014.3 |
| 20260905090219 | 77 | 26 | 0.0 | 1.7 | 0.00 | 0.00 | 0.00 | 94 | 1014.2 |
| 20260905085718 | 77 | 269 | 0.0 | 0.9 | 0.00 | 0.00 | 0.00 | 94 | 1014.2 |
| 20260905085212 | 77 | 205 | 0.0 | 0.9 | 0.00 | 0.00 | 0.00 | 93 | 1014.1 |
| 20260905084707 | 77 | 243 | 0.0 | 1.7 | 0.00 | 0.00 | 0.00 | 93 | 1014.0 |
| 20260905084207 | 77 | 237 | 0.0 | 0.9 | 0.00 | 0.00 | 0.00 | 93 | 1014.1 |
| 20260905083701 | 77 | 240 | 0.0 | 1.7 | 0.00 | 0.00 | 0.00 | 93 | 1014.0 |
| 20260905083158 | 77 | 54 | 0.0 | 1.7 | 0.00 | 0.00 | 0.00 | 93 | 1013.8 |
| 20260905082653 | 78 | 40 | 1.7 | 2.6 | 0.00 | 0.00 | 0.00 | 91 | 1013.6 |
| 20260905082148 | 79 | 286 | 0.9 | 1.7 | 0.00 | 0.00 | 0.00 | 89 | 1013.8 |
| 20260905081643 | 79 | 245 | 0.9 | 3.5 | 0.00 | 0.00 | 0.00 | 89 | 1013.8 |
| 20260905081138 | 79 | 197 | 0.0 | 2.6 | 0.00 | 0.00 | 0.00 | 90 | 1013.6 |
| 20260905080632 | 79 | 242 | 1.7 | 2.6 | 0.00 | 0.00 | 0.00 | 91 | 1013.8 |
| 20260905080127 | 78 | 227 | 0.9 | 2.6 | 0.00 | 0.00 | 0.00 | 92 | 1013.8 |
| 20260905075626 | 78 | 226 | 0.9 | 2.6 | 0.00 | 0.00 | 0.00 | 92 | 1013.7 |
| 20260905075120 | 77 | 244 | 1.7 | 1.7 | 0.00 | 0.00 | 0.00 | 94 | 1013.6 |
| 20260905074619 | 77 | 32 | 0.0 | 1.7 | 0.00 | 0.00 | 0.00 | 95 | 1013.6 |
| 20260905074115 | 76 | 212 | 0.0 | 1.7 | 0.00 | 0.00 | 0.00 | 96 | 1013.7 |
| 20260905073611 | 76 | 62 | 0.0 | 0.9 | 0.00 | 0.00 | 0.00 | 97 | 1013.5 |
| 20260905073106 | 76 | 61 | 0.0 | 1.7 | 0.00 | 0.00 | 0.00 | 97 | 1013.5 |
| 20260905072605 | 76 | 17 | 0.0 | 0.9 | 0.00 | 0.00 | 0.00 | 96 | 1013.8 |
| 20260905072101 | 77 | 89 | 0.0 | 0.9 | 0.00 | 0.00 | 0.00 | 96 | 1013.7 |
| 20260905071558 | 77 | 89 | 0.0 | 0.9 | 0.00 | 0.00 | 0.00 | 96 | 1014.0 |
| 20260905071058 | 77 | 117 | 0.0 | 0.9 | 0.00 | 0.00 | 0.00 | 95 | 1014.3 |
| 20260905070553 | 77 | 147 | 0.0 | 0.9 | 0.00 | 0.00 | 0.00 | 95 | 1014.2 |
| 20260905070049 | 77 | 220 | 0.9 | 2.6 | 0.00 | 0.00 | 0.00 | 95 | 1014.3 |
| 20260905065546 | 77 | 246 | 0.0 | 1.7 | 0.00 | 0.00 | 0.00 | 96 | 1014.3 |
| 20260905065041 | 77 | 62 | 0.0 | 0.0 | 0.00 | 0.00 | 0.00 | 95 | 1014.2 |
| 20260905064536 | 77 | 15 | 0.0 | 0.9 | 0.00 | 0.00 | 0.00 | 95 | 1014.6 |
| 20260905064032 | 77 | 240 | 0.0 | 0.9 | 0.00 | 0.00 | 0.00 | 95 | 1014.5 |
| 20260905063530 | 77 | 228 | 0.0 | 1.7 | 0.00 | 0.00 | 0.00 | 95 | 1014.6 |
| 20260905063027 | 77 | 224 | 0.0 | 1.7 | 0.00 | 0.00 | 0.00 | 95 | 1014.6 |
| 20260905062526 | 77 | 186 | 0.0 | 0.9 | 0.00 | 0.00 | 0.00 | 96 | 1014.6 |
| 20260905062021 | 77 | 55 | 0.0 | 0.9 | 0.00 | 0.00 | 0.00 | 96 | 1014.7 |
| 20260905061517 | 77 | 45 | 0.0 | 0.9 | 0.00 | 0.00 | 0.00 | 96 | 1014.8 |
| 20260905061015 | 77 | 235 | 0.0 | 0.0 | 0.00 | 0.00 | 0.00 | 96 | 1014.5 |
| 20260905060512 | 77 | 235 | 0.0 | 0.9 | 0.00 | 0.00 | 0.00 | 95 | 1014.7 |
| 20260905060007 | 77 | 25 | 0.0 | 0.9 | 0.00 | 0.00 | 0.00 | 95 | 1014.8 |
| 20260905055505 | 78 | 119 | 0.0 | 0.0 | 0.00 | 0.00 | 0.00 | 94 | 1014.9 |
| 20260905055000 | 78 | 126 | 0.0 | 0.0 | 0.00 | 0.00 | 0.00 | 94 | 1014.8 |
| 20260905054456 | 78 | 209 | 0.0 | 0.9 | 0.00 | 0.00 | 0.00 | 94 | 1014.7 |
| 20260905053951 | 78 | 202 | 0.0 | 0.9 | 0.00 | 0.00 | 0.00 | 94 | 1014.7 |
| 20260905053446 | 78 | 217 | 0.0 | 0.9 | 0.00 | 0.00 | 0.00 | 94 | 1015.0 |
| 20260905052942 | 78 | 50 | 0.0 | 0.0 | 0.00 | 0.00 | 0.00 | 94 | 1015.0 |
| 20260905052441 | 78 | 48 | 0.0 | 1.7 | 0.00 | 0.00 | 0.00 | 93 | 1014.9 |
| 20260905051940 | 78 | 160 | 0.0 | 0.0 | 0.00 | 0.00 | 0.00 | 92 | 1015.0 |
| 20260905051436 | 79 | 160 | 0.0 | 1.7 | 0.00 | 0.00 | 0.00 | 92 | 1015.1 |
| 20260905050933 | 79 | 227 | 0.0 | 1.7 | 0.00 | 0.00 | 0.00 | 92 | 1015.0 |
| 20260905050429 | 79 | 231 | 1.7 | 2.6 | 0.00 | 0.00 | 0.00 | 92 | 1014.9 |
| 20260905045924 | 79 | 228 | 1.7 | 1.7 | 0.00 | 0.00 | 0.00 | 92 | 1015.1 |
| 20260905045414 | 79 | 224 | 0.9 | 1.7 | 0.00 | 0.00 | 0.00 | 92 | 1015.0 |
| 20260905044909 | 79 | 49 | 0.0 | 0.0 | 0.00 | 0.00 | 0.00 | 93 | 1015.2 |
| 20260905044404 | 79 | 49 | 0.0 | 0.0 | 0.00 | 0.00 | 0.00 | 93 | 1015.4 |
| 20260905043903 | 79 | 49 | 0.0 | 0.0 | 0.00 | 0.00 | 0.00 | 93 | 1015.1 |
| 20260905043358 | 79 | 49 | 0.0 | 0.0 | 0.00 | 0.00 | 0.00 | 93 | 1015.1 |
| 20260905042857 | 79 | 49 | 0.0 | 0.0 | 0.00 | 0.00 | 0.00 | 93 | 1015.3 |
| 20260905042352 | 79 | 49 | 0.0 | 0.0 | 0.00 | 0.00 | 0.00 | 93 | 1015.2 |
| 20260905041847 | 79 | 49 | 0.0 | 0.0 | 0.00 | 0.00 | 0.00 | 93 | 1015.2 |
| 20260905041343 | 79 | 49 | 0.0 | 0.0 | 0.00 | 0.00 | 0.00 | 93 | 1015.1 |
| 20260905040838 | 79 | 49 | 0.0 | 0.0 | 0.00 | 0.00 | 0.00 | 92 | 1015.2 |
| 20260905040337 | 79 | 309 | 0.0 | 0.9 | 0.00 | 0.00 | 0.00 | 92 | 1015.4 |
| 20260905035836 | 79 | 41 | 0.0 | 0.9 | 0.00 | 0.00 | 0.00 | 91 | 1015.1 |
| 20260905035332 | 80 | 227 | 0.9 | 0.9 | 0.00 | 0.00 | 0.00 | 91 | 1015.1 |
| 20260905034829 | 80 | 240 | 0.0 | 0.9 | 0.00 | 0.00 | 0.00 | 91 | 1015.2 |
| 20260905034324 | 80 | 230 | 0.0 | 0.0 | 0.00 | 0.00 | 0.00 | 91 | 1015.1 |
| 20260905033822 | 80 | 297 | 0.0 | 0.9 | 0.00 | 0.00 | 0.00 | 91 | 1015.1 |
| 20260905033318 | 79 | 62 | 0.0 | 0.0 | 0.00 | 0.00 | 0.00 | 91 | 1015.1 |
| 20260905032817 | 79 | 62 | 0.0 | 1.7 | 0.00 | 0.00 | 0.00 | 90 | 1015.3 |
| 20260905032313 | 80 | 224 | 0.0 | 1.7 | 0.00 | 0.00 | 0.00 | 89 | 1015.1 |
| 20260905031808 | 80 | 224 | 0.9 | 1.7 | 0.00 | 0.00 | 0.00 | 89 | 1014.9 |
| 20260905031304 | 80 | 230 | 0.0 | 0.9 | 0.00 | 0.00 | 0.00 | 89 | 1015.2 |
| 20260905030759 | 80 | 237 | 0.0 | 0.9 | 0.00 | 0.00 | 0.00 | 89 | 1015.0 |
| 20260905030254 | 80 | 147 | 0.0 | 0.0 | 0.00 | 0.00 | 0.00 | 89 | 1015.1 |
| 20260905025748 | 80 | 147 | 0.0 | 0.9 | 0.00 | 0.00 | 0.00 | 88 | 1015.2 |
| 20260905025244 | 80 | 50 | 0.0 | 0.9 | 0.00 | 0.00 | 0.00 | 88 | 1015.2 |
| 20260905024740 | 80 | 62 | 0.0 | 0.9 | 0.00 | 0.00 | 0.00 | 87 | 1015.2 |
| 20260905024235 | 81 | 255 | 0.0 | 0.0 | 0.00 | 0.00 | 0.00 | 86 | 1015.2 |
| 20260905023735 | 81 | 255 | 0.0 | 0.9 | 0.00 | 0.00 | 0.00 | 86 | 1015.1 |
| 20260905023230 | 81 | 142 | 0.0 | 0.0 | 0.00 | 0.00 | 0.00 | 86 | 1015.4 |
| 20260905022729 | 81 | 144 | 0.0 | 0.9 | 0.00 | 0.00 | 0.00 | 86 | 1015.0 |
| 20260905022225 | 81 | 117 | 0.0 | 0.0 | 0.00 | 0.00 | 0.00 | 85 | 1015.1 |
| 20260905021719 | 81 | 117 | 0.0 | 0.9 | 0.00 | 0.00 | 0.00 | 85 | 1015.2 |
| 20260905021214 | 82 | 89 | 0.0 | 0.9 | 0.00 | 0.00 | 0.00 | 84 | 1014.8 |
| 20260905020709 | 82 | 122 | 0.0 | 0.9 | 0.00 | 0.00 | 0.00 | 83 | 1015.1 |
| 20260905020204 | 82 | 230 | 0.0 | 1.7 | 0.00 | 0.00 | 0.00 | 82 | 1015.0 |
| 20260905015702 | 82 | 256 | 0.0 | 0.0 | 0.00 | 0.00 | 0.00 | 82 | 1014.9 |
| 20260905015156 | 82 | 233 | 0.9 | 1.7 | 0.00 | 0.00 | 0.00 | 83 | 1015.0 |
| 20260905014655 | 83 | 242 | 0.0 | 0.0 | 0.00 | 0.00 | 0.00 | 82 | 1015.1 |
| 20260905014151 | 83 | 242 | 0.0 | 0.0 | 0.00 | 0.00 | 0.00 | 81 | 1014.8 |
| 20260905013647 | 83 | 242 | 0.0 | 0.0 | 0.00 | 0.00 | 0.00 | 81 | 1014.7 |
| 20260905013143 | 83 | 242 | 0.0 | 0.9 | 0.00 | 0.00 | 0.00 | 80 | 1014.9 |
| 20260905012638 | 83 | 237 | 0.0 | 1.7 | 0.00 | 0.00 | 0.00 | 81 | 1014.6 |
| 20260905012134 | 83 | 230 | 0.0 | 0.0 | 0.00 | 0.00 | 0.00 | 81 | 1014.6 |
| 20260905011631 | 84 | 230 | 0.0 | 0.9 | 0.00 | 0.00 | 0.00 | 81 | 1014.5 |
| 20260905011126 | 84 | 242 | 0.0 | 0.0 | 0.00 | 0.00 | 0.00 | 80 | 1014.8 |
| 20260905010621 | 84 | 256 | 0.0 | 1.7 | 0.00 | 0.00 | 0.00 | 79 | 1014.8 |
| 20260905010116 | 84 | 229 | 1.7 | 1.7 | 0.00 | 0.00 | 0.00 | 78 | 1014.7 |
| 20260905005611 | 84 | 242 | 0.0 | 0.0 | 0.00 | 0.00 | 0.00 | 79 | 1014.6 |
| 20260905005107 | 85 | 242 | 0.0 | 0.9 | 0.00 | 0.00 | 0.00 | 78 | 1014.6 |
| 20260905004602 | 85 | 230 | 0.0 | 0.0 | 0.00 | 0.00 | 0.00 | 75 | 1014.6 |
| 20260905004057 | 85 | 230 | 0.0 | 0.0 | 0.00 | 0.00 | 0.00 | 74 | 1014.6 |
| 20260905003553 | 86 | 230 | 0.0 | 0.0 | 0.00 | 0.00 | 0.00 | 74 | 1014.3 |
| 20260905003048 | 86 | 230 | 0.0 | 0.0 | 0.00 | 0.00 | 0.00 | 74 | 1014.6 |
| 20260905002544 | 86 | 230 | 0.0 | 0.0 | 0.00 | 0.00 | 0.00 | 72 | 1014.4 |
| 20260905002044 | 87 | 255 | 0.0 | 0.9 | 0.00 | 0.00 | 0.00 | 71 | 1014.3 |
| 20260905001539 | 87 | 255 | 0.0 | 0.0 | 0.00 | 0.00 | 0.00 | 70 | 1014.3 |
| 20260905001032 | 87 | 255 | 0.0 | 0.0 | 0.00 | 0.00 | 0.00 | 70 | 1014.5 |
| 20260905000528 | 88 | 255 | 0.0 | 0.0 | 0.00 | 0.00 | 0.00 | 68 | 1014.3 |
| 20260905000024 | 88 | 255 | 0.0 | 0.0 | 0.00 | 0.00 | 0.00 | 68 | 1014.4 |
| 20260904235519 | 89 | 255 | 0.0 | 0.0 | 0.00 | 0.00 | 0.00 | 67 | 1014.3 |
| 20260904235019 | 89 | 255 | 0.0 | 0.0 | 0.00 | 0.00 | 0.00 | 65 | 1014.2 |
| 20260904234519 | 89 | 255 | 0.0 | 0.0 | 0.00 | 0.00 | 0.00 | 65 | 1014.4 |
| 20260904234015 | 90 | 242 | 0.0 | 0.9 | 0.00 | 0.00 | 0.00 | 65 | 1014.1 |
| 20260904233509 | 90 | 269 | 0.0 | 0.0 | 0.00 | 0.00 | 0.00 | 64 | 1014.3 |
| 20260904233006 | 91 | 269 | 0.0 | 0.0 | 0.00 | 0.00 | 0.00 | 63 | 1014.3 |
| 20260904232501 | 91 | 269 | 0.0 | 0.0 | 0.00 | 0.00 | 0.00 | 62 | 1014.1 |
| 20260904231953 | 91 | 269 | 0.0 | 0.0 | 0.00 | 0.00 | 0.00 | 62 | 1014.2 |
| 20260904231448 | 91 | 269 | 0.0 | 0.0 | 0.00 | 0.00 | 0.00 | 61 | 1014.1 |
| 20260904230943 | 92 | 269 | 0.0 | 0.9 | 0.00 | 0.00 | 0.00 | 61 | 1014.1 |
| 20260904230442 | 92 | 242 | 0.0 | 0.0 | 0.00 | 0.00 | 0.00 | 60 | 1014.1 |
| 20260904225937 | 92 | 269 | 0.0 | 1.7 | 0.00 | 0.00 | 0.00 | 60 | 1014.3 |
| 20260904225434 | 93 | 242 | 0.0 | 1.7 | 0.00 | 0.00 | 0.00 | 60 | 1014.4 |
| 20260904224929 | 93 | 237 | 1.7 | 1.7 | 0.00 | 0.00 | 0.00 | 59 | 1014.4 |
| 20260904224425 | 94 | 89 | 0.0 | 0.0 | 0.00 | 0.00 | 0.00 | 57 | 1014.2 |
| 20260904223924 | 93 | 89 | 0.0 | 0.0 | 0.00 | 0.00 | 0.00 | 58 | 1014.5 |
| 20260904223423 | 93 | 37 | 0.0 | 0.0 | 0.00 | 0.00 | 0.00 | 59 | 1014.5 |
| 20260904222920 | 93 | 41 | 0.0 | 1.7 | 0.00 | 0.00 | 0.00 | 59 | 1014.3 |
| 20260904222415 | 93 | 50 | 0.0 | 0.9 | 0.00 | 0.00 | 0.00 | 58 | 1014.4 |
| 20260904221915 | 93 | 113 | 0.0 | 0.9 | 0.00 | 0.00 | 0.00 | 55 | 1014.3 |
| 20260904221409 | 94 | 205 | 0.0 | 2.6 | 0.00 | 0.00 | 0.00 | 57 | 1014.3 |
| 20260904220905 | 94 | 244 | 2.6 | 3.5 | 0.00 | 0.00 | 0.00 | 56 | 1014.4 |
| 20260904220404 | 94 | 239 | 0.9 | 4.3 | 0.00 | 0.00 | 0.00 | 55 | 1014.4 |
| 20260904215900 | 94 | 233 | 2.6 | 3.5 | 0.00 | 0.00 | 0.00 | 57 | 1014.4 |
| 20260904215354 | 94 | 309 | 0.0 | 0.9 | 0.00 | 0.00 | 0.00 | 56 | 1014.3 |
| 20260904214850 | 94 | 0 | 0.0 | 0.9 | 0.00 | 0.00 | 0.00 | 57 | 1014.4 |
| 20260904214346 | 94 | 230 | 0.0 | 3.5 | 0.00 | 0.00 | 0.00 | 59 | 1014.5 |
| 20260904213844 | 94 | 53 | 1.7 | 2.6 | 0.00 | 0.00 | 0.00 | 56 | 1014.6 |
| 20260904213339 | 95 | 236 | 1.7 | 2.6 | 0.00 | 0.00 | 0.00 | 56 | 1014.6 |
| 20260904212836 | 94 | 246 | 0.0 | 2.6 | 0.00 | 0.00 | 0.00 | 54 | 1014.7 |
| 20260904212335 | 94 | 262 | 0.9 | 2.6 | 0.00 | 0.00 | 0.00 | 53 | 1014.5 |
| 20260904211831 | 95 | 327 | 0.9 | 1.7 | 0.00 | 0.00 | 0.00 | 54 | 1014.9 |
| 20260904211325 | 94 | 333 | 0.0 | 3.5 | 0.00 | 0.00 | 0.00 | 54 | 1014.8 |
| 20260904210815 | 94 | 50 | 0.0 | 1.7 | 0.00 | 0.00 | 0.00 | 58 | 1015.3 |
| 20260904210314 | 95 | 254 | 0.0 | 2.6 | 0.00 | 0.00 | 0.00 | 54 | 1014.9 |
| 20260904205811 | 95 | 230 | 0.0 | 4.3 | 0.00 | 0.00 | 0.00 | 58 | 1014.9 |
| 20260904205306 | 94 | 223 | 0.0 | 6.1 | 0.00 | 0.00 | 0.00 | 55 | 1014.9 |
| 20260904204803 | 94 | 65 | 0.9 | 2.6 | 0.00 | 0.00 | 0.00 | 61 | 1015.0 |
| 20260904204258 | 95 | 203 | 1.7 | 3.5 | 0.00 | 0.00 | 0.00 | 53 | 1014.9 |
| 20260904203754 | 95 | 259 | 1.7 | 6.1 | 0.00 | 0.00 | 0.00 | 54 | 1015.2 |
| 20260904203250 | 95 | 236 | 2.6 | 3.5 | 0.00 | 0.00 | 0.00 | 56 | 1015.0 |
| 20260904202746 | 94 | 210 | 0.0 | 7.0 | 0.00 | 0.00 | 0.00 | 56 | 1015.2 |
| 20260904202242 | 94 | 234 | 1.7 | 4.3 | 0.00 | 0.00 | 0.00 | 56 | 1015.2 |
| 20260904201737 | 95 | 19 | 0.0 | 1.7 | 0.00 | 0.00 | 0.00 | 58 | 1015.3 |
| 20260904201237 | 95 | 333 | 0.0 | 1.7 | 0.00 | 0.00 | 0.00 | 57 | 1015.2 |
| 20260904200732 | 95 | 314 | 0.0 | 5.2 | 0.00 | 0.00 | 0.00 | 54 | 1015.5 |
| 20260904200227 | 95 | 9 | 1.7 | 2.6 | 0.00 | 0.00 | 0.00 | 56 | 1015.7 |
| 20260904195726 | 94 | 276 | 0.0 | 2.6 | 0.00 | 0.00 | 0.00 | 56 | 1015.7 |
| 20260904195224 | 94 | 28 | 3.5 | 3.5 | 0.00 | 0.00 | 0.00 | 56 | 1015.7 |
| 20260904194720 | 95 | 113 | 0.0 | 3.5 | 0.00 | 0.00 | 0.00 | 55 | 1015.8 |
| 20260904194219 | 96 | 7 | 2.6 | 2.6 | 0.00 | 0.00 | 0.00 | 55 | 1015.9 |
| 20260904193714 | 95 | 309 | 0.9 | 4.3 | 0.00 | 0.00 | 0.00 | 53 | 1015.9 |
| 20260904193210 | 95 | 283 | 0.0 | 2.6 | 0.00 | 0.00 | 0.00 | 53 | 1016.0 |
| 20260904192705 | 96 | 8 | 2.6 | 3.5 | 0.00 | 0.00 | 0.00 | 54 | 1016.2 |
| 20260904192200 | 96 | 11 | 0.9 | 3.5 | 0.00 | 0.00 | 0.00 | 50 | 1016.3 |
| 20260904191657 | 98 | 348 | 1.7 | 4.3 | 0.00 | 0.00 | 0.00 | 50 | 1016.3 |
| 20260904191153 | 96 | 77 | 0.9 | 2.6 | 0.00 | 0.00 | 0.00 | 55 | 1016.3 |
| 20260904190649 | 98 | 58 | 1.7 | 2.6 | 0.00 | 0.00 | 0.00 | 54 | 1016.4 |
| 20260904190139 | 98 | 182 | 0.0 | 3.5 | 0.00 | 0.00 | 0.00 | 50 | 1016.5 |
| 20260904185635 | 98 | 263 | 1.7 | 6.1 | 0.00 | 0.00 | 0.00 | 51 | 1016.5 |
| 20260904185130 | 98 | 201 | 1.7 | 3.5 | 0.00 | 0.00 | 0.00 | 51 | 1016.6 |
| 20260904184628 | 98 | 246 | 0.9 | 3.5 | 0.00 | 0.00 | 0.00 | 53 | 1016.5 |
| 20260904184124 | 97 | 342 | 0.9 | 4.3 | 0.00 | 0.00 | 0.00 | 55 | 1016.7 |
| 20260904183620 | 97 | 80 | 1.7 | 3.5 | 0.00 | 0.00 | 0.00 | 56 | 1016.6 |
| 20260904183114 | 96 | 241 | 1.7 | 5.2 | 0.00 | 0.00 | 0.00 | 55 | 1016.7 |
| 20260904182610 | 97 | 316 | 0.0 | 5.2 | 0.00 | 0.00 | 0.00 | 56 | 1016.6 |
| 20260904182104 | 96 | 200 | 0.0 | 11.3 | 0.00 | 0.00 | 0.00 | 57 | 1016.7 |
| 20260904181601 | 97 | 193 | 0.9 | 4.3 | 0.00 | 0.00 | 0.00 | 54 | 1017.1 |
| 20260904181100 | 97 | 303 | 2.6 | 6.1 | 0.00 | 0.00 | 0.00 | 55 | 1016.9 |
| 20260904180555 | 98 | 168 | 0.0 | 2.6 | 0.00 | 0.00 | 0.00 | 54 | 1017.1 |
| 20260904180050 | 98 | 188 | 1.7 | 2.6 | 0.00 | 0.00 | 0.00 | 53 | 1017.2 |
| 20260904175550 | 97 | 341 | 0.9 | 2.6 | 0.00 | 0.00 | 0.00 | 55 | 1017.2 |
| 20260904175048 | 96 | 286 | 0.9 | 7.0 | 0.00 | 0.00 | 0.00 | 56 | 1017.2 |
| 20260904174543 | 96 | 209 | 2.6 | 7.8 | 0.00 | 0.00 | 0.00 | 55 | 1017.4 |
| 20260904174040 | 97 | 343 | 0.9 | 7.8 | 0.00 | 0.00 | 0.00 | 55 | 1017.2 |
| 20260904173540 | 98 | 211 | 1.7 | 4.3 | 0.00 | 0.00 | 0.00 | 52 | 1017.2 |